FW3814 Weather Reports


time (UTC)temp
F
wind
direction
speed
knots
gust
knots
rain 1hr
in
rain 24hr
in
rain mn
in
humidity
%
barometer
mb
20260502180503 69 0 0.0 0.0 0.00 0.00 0.00 34 1019.1
20260502170503 72 255 3.5 4.3 0.00 0.00 0.00 32 1019.0
20260502164003 72 238 1.7 4.3 0.00 0.00 0.00 30 1019.1
20260502163503 72 240 2.6 4.3 0.00 0.00 0.00 30 1019.1
20260502163003 73 236 2.6 6.1 0.00 0.00 0.00 30 1019.1
20260502162503 73 215 2.6 6.1 0.00 0.00 0.00 30 1019.2
20260502162003 73 199 2.6 3.5 0.00 0.00 0.00 30 1019.2
20260502161503 73 229 3.5 7.0 0.00 0.00 0.00 30 1019.4
20260502161003 73 245 2.6 7.0 0.00 0.00 0.00 30 1019.3
20260502160503 73 343 1.7 3.5 0.00 0.00 0.00 30 1019.5
20260502152003 73 161 3.5 6.1 0.00 0.00 0.00 30 1019.7
20260502151503 73 211 4.3 7.0 0.00 0.00 0.00 30 1019.8
20260502151003 73 268 4.3 7.0 0.00 0.00 0.00 31 1019.8
20260502150503 73 281 3.5 4.3 0.00 0.00 0.00 31 1019.7
20260502130503 71 249 5.2 8.7 0.00 0.00 0.00 35 1021.5
20260502123503 71 300 5.2 7.0 0.00 0.00 0.00 35 1021.8
20260502123003 71 268 4.3 5.2 0.00 0.00 0.00 35 1021.7
20260502122503 71 253 4.3 5.2 0.00 0.00 0.00 36 1021.9
20260502122024 71 277 3.5 5.2 0.00 0.00 0.00 36 1022.1
20260502121524 71 291 2.6 5.2 0.00 0.00 0.00 37 1022.1
20260502121003 70 310 4.3 5.2 0.00 0.00 0.00 36 1022.2
20260502120503 70 315 4.3 5.2 0.00 0.00 0.00 37 1022.2
20260502115503 70 325 2.6 4.3 0.00 0.00 0.00 38 1022.4
20260502115003 70 327 2.6 4.3 0.00 0.00 0.00 37 1022.5
20260502114503 70 295 2.6 7.0 0.00 0.00 0.00 38 1022.5
20260502114003 70 281 2.6 7.0 0.00 0.00 0.00 39 1022.5
20260502113003 70 255 5.2 7.8 0.00 0.00 0.00 37 1022.8
20260502112503 70 248 3.5 6.1 0.00 0.00 0.00 38 1022.8
20260502112003 70 281 0.9 4.3 0.00 0.00 0.00 39 1022.8
20260502111524 69 224 0.9 7.0 0.00 0.00 0.00 40 1023.0
20260502111003 69 260 3.5 7.0 0.00 0.00 0.00 39 1023.0
20260502110524 69 279 4.3 5.2 0.00 0.00 0.00 39 1023.1
20260502110003 69 335 3.5 6.1 0.00 0.00 0.00 39 1023.2
20260502105524 68 205 3.5 6.1 0.00 0.00 0.00 38 1023.3
20260502105003 68 224 6.1 9.6 0.00 0.00 0.00 38 1023.2
20260502104503 68 240 5.2 9.6 0.00 0.00 0.00 39 1023.4
20260502104024 68 263 1.7 9.6 0.00 0.00 0.00 40 1023.4
20260502103503 68 284 2.6 8.7 0.00 0.00 0.00 40 1023.5
20260502103003 67 44 5.2 8.7 0.00 0.00 0.00 40 1023.5
20260502102503 67 91 4.3 7.0 0.00 0.00 0.00 40 1023.6
20260502102003 67 166 5.2 9.6 0.00 0.00 0.00 40 1023.9
20260502101503 67 171 5.2 9.6 0.00 0.00 0.00 39 1023.9
20260502101024 67 190 3.5 7.0 0.00 0.00 0.00 40 1023.7
20260502100524 67 178 2.6 7.0 0.00 0.00 0.00 40 1023.7
20260502091503 66 174 2.6 7.0 0.00 0.00 0.00 42 1024.4
20260502091003 66 171 1.7 7.0 0.00 0.00 0.00 42 1024.5
20260502090503 66 175 0.0 3.5 0.00 0.00 0.00 43 1024.5
20260502071524 60 0 0.0 0.0 0.00 0.00 0.00 60 1024.8
20260502071003 60 0 0.0 0.0 0.00 0.00 0.00 60 1024.8
20260502070503 60 0 0.0 0.0 0.00 0.00 0.00 60 1024.8
20260502070003 60 0 0.0 0.0 0.00 0.00 0.00 60 1024.8
20260502065503 60 0 0.0 0.0 0.00 0.00 0.00 61 1024.9
20260502065003 59 0 0.0 0.0 0.00 0.00 0.00 61 1025.0
20260502064524 59 9 0.0 0.9 0.00 0.00 0.00 61 1024.9
20260502064024 59 3 0.0 0.9 0.00 0.00 0.00 61 1024.9
20260502063524 58 3 0.0 0.9 0.00 0.00 0.00 62 1024.8
20260502063003 58 6 0.0 0.9 0.00 0.00 0.00 62 1025.0
20260502062524 58 360 0.0 0.9 0.00 0.00 0.00 62 1025.0
20260502062003 57 360 0.0 0.9 0.00 0.00 0.00 62 1024.8
20260502061503 57 7 0.9 2.6 0.00 0.00 0.00 63 1024.8
20260502061024 56 7 0.9 2.6 0.00 0.00 0.00 63 1024.6
20260502060503 56 0 0.0 0.0 0.00 0.00 0.00 64 1024.8
20260502060024 56 360 0.0 0.9 0.00 0.00 0.00 64 1024.6
20260502055518 55 360 0.0 0.9 0.00 0.00 0.00 64 1024.8
20260502055003 55 360 0.0 0.9 0.00 0.00 0.00 65 1024.8
20260502054503 54 0 0.0 0.0 0.00 0.00 0.00 70 1025.0
20260502054003 54 347 0.0 1.7 0.00 0.00 0.00 70 1024.7
20260502053503 54 3 0.9 1.7 0.00 0.00 0.00 70 1024.8
20260502053024 53 8 0.9 1.7 0.00 0.00 0.00 70 1024.9
20260502052503 53 360 0.9 2.6 0.00 0.00 0.00 70 1024.9
20260502052003 52 1 1.7 2.6 0.00 0.00 0.00 70 1024.7
20260502051503 52 1 0.9 2.6 0.00 0.00 0.00 70 1024.6
20260502051024 51 360 1.7 1.7 0.00 0.00 0.00 71 1024.6
20260502050503 51 2 0.9 1.7 0.00 0.00 0.00 71 1024.9
20260502050003 51 9 0.0 1.7 0.00 0.00 0.00 71 1024.8
20260502045503 50 360 0.0 1.7 0.00 0.00 0.00 71 1024.7
20260502045003 50 360 0.9 1.7 0.00 0.00 0.00 71 1024.7
20260502044503 50 3 0.0 1.7 0.00 0.00 0.00 71 1024.6
20260502044003 49 22 0.0 0.9 0.00 0.00 0.00 70 1024.7
20260502043503 49 360 0.0 1.7 0.00 0.00 0.00 70 1024.7
20260502043003 49 360 0.0 1.7 0.00 0.00 0.00 70 1024.7
20260502042524 49 9 0.0 1.7 0.00 0.00 0.00 70 1024.8
20260502042003 49 22 0.0 1.7 0.00 0.00 0.00 70 1024.6
20260502041503 49 22 0.0 1.7 0.00 0.00 0.00 70 1024.6
20260502041003 49 0 0.0 0.0 0.00 0.00 0.00 70 1024.6
20260502040503 50 0 0.0 0.0 0.00 0.00 0.00 70 1024.6
20260502040003 50 4 0.0 0.9 0.00 0.00 0.00 70 1024.6
20260502035503 50 4 0.0 0.9 0.00 0.00 0.00 70 1024.6
20260502035003 50 0 0.0 0.0 0.00 0.00 0.00 69 1024.5
20260502034503 50 0 0.0 0.0 0.00 0.00 0.00 69 1024.4
20260502034024 50 0 0.0 0.0 0.00 0.00 0.00 69 1024.5
20260502033503 50 360 0.0 1.7 0.00 0.00 0.00 69 1024.6
20260502033003 50 360 0.0 1.7 0.00 0.00 0.00 68 1024.5
20260502032524 50 11 0.9 3.5 0.00 0.00 0.00 68 1024.3
20260502032003 50 16 0.9 3.5 0.00 0.00 0.00 68 1024.4
20260502031503 50 21 0.9 1.7 0.00 0.00 0.00 68 1024.6
20260502031024 50 22 0.0 1.7 0.00 0.00 0.00 67 1024.5
20260502030503 50 4 0.0 1.7 0.00 0.00 0.00 67 1024.5
20260502030003 50 13 0.9 1.7 0.00 0.00 0.00 66 1024.6
20260502025503 50 16 0.9 1.7 0.00 0.00 0.00 66 1024.6
20260502025003 50 5 0.9 1.7 0.00 0.00 0.00 65 1024.7
20260502024503 50 6 1.7 1.7 0.00 0.00 0.00 65 1024.3
20260502024003 50 8 0.9 1.7 0.00 0.00 0.00 64 1024.5
20260502023503 50 10 0.0 1.7 0.00 0.00 0.00 64 1024.5
20260502023003 51 360 0.0 0.9 0.00 0.00 0.00 63 1024.6
20260502022503 51 360 0.0 0.9 0.00 0.00 0.00 63 1024.4
20260502022003 51 360 0.0 1.7 0.00 0.00 0.00 62 1024.5
20260502021524 52 4 0.0 1.7 0.00 0.00 0.00 62 1024.4
20260502021003 52 20 0.0 0.9 0.00 0.00 0.00 62 1024.6
20260502020524 52 17 0.9 1.7 0.00 0.00 0.00 62 1024.3
20260502020024 52 19 0.9 1.7 0.00 0.00 0.00 62 1024.3
20260502015503 52 24 0.9 1.7 0.00 0.00 0.00 61 1024.2
20260502015003 52 26 0.9 1.7 0.00 0.00 0.00 61 1024.3
20260502014503 52 24 0.9 1.7 0.00 0.00 0.00 61 1024.2
20260502014003 52 25 0.9 1.7 0.00 0.00 0.00 61 1024.3
20260502013503 52 25 0.9 1.7 0.00 0.00 0.00 61 1024.3
20260502013003 52 19 0.9 1.7 0.00 0.00 0.00 61 1024.3
20260502012503 52 15 0.0 0.9 0.00 0.00 0.00 60 1024.4
20260502012003 52 18 0.0 0.9 0.00 0.00 0.00 60 1024.3
20260502011503 52 21 0.0 0.9 0.00 0.00 0.00 60 1024.3
20260502011024 52 30 0.0 0.9 0.00 0.00 0.00 60 1024.3
20260502010503 52 33 0.0 0.9 0.00 0.00 0.00 60 1024.3
20260502010003 53 41 0.0 0.9 0.00 0.00 0.00 60 1024.3
20260502005503 53 39 0.0 0.9 0.00 0.00 0.00 60 1024.3
20260502005003 53 33 0.9 1.7 0.00 0.00 0.00 59 1024.5
20260502004503 53 34 0.0 1.7 0.00 0.00 0.00 59 1024.3
20260502004003 53 0 0.0 0.0 0.00 0.00 0.00 59 1024.4
20260502003524 53 0 0.0 0.0 0.00 0.00 0.00 60 1024.5
20260502003003 53 0 0.0 0.0 0.00 0.00 0.00 60 1024.5
20260502002503 53 0 0.0 0.0 0.00 0.00 0.00 59 1024.7
20260502002003 53 0 0.0 0.0 0.00 0.00 0.00 58 1024.6
20260502001503 53 0 0.0 0.0 0.00 0.00 0.00 57 1024.5
20260502001003 53 0 0.0 0.0 0.00 0.00 0.00 57 1024.4
20260502000503 53 0 0.0 0.0 0.00 0.00 0.00 56 1024.6
20260502000003 53 0 0.0 0.0 0.00 0.00 0.00 56 1024.6
20260501235503 53 0 0.0 0.0 0.00 0.00 0.00 55 1024.6
20260501235003 53 360 0.0 0.9 0.00 0.00 0.00 55 1024.8
20260501234503 54 360 0.0 0.9 0.00 0.00 0.00 54 1024.6
20260501234003 54 18 0.0 1.7 0.00 0.00 0.00 54 1024.6
20260501233503 54 47 0.9 3.5 0.00 0.00 0.00 54 1024.5
20260501233003 54 63 1.7 3.5 0.00 0.00 0.00 53 1024.6
20260501232503 54 61 2.6 3.5 0.00 0.00 0.00 50 1024.6
20260501232003 55 56 2.6 3.5 0.00 0.00 0.00 50 1024.4
20260501231504 55 62 3.5 3.5 0.00 0.00 0.00 50 1024.6
20260501231024 55 63 2.6 3.5 0.00 0.00 0.00 49 1024.6
20260501230503 56 67 1.7 2.6 0.00 0.00 0.00 46 1024.5
20260501230003 56 67 0.9 2.6 0.00 0.00 0.00 46 1024.4
20260501225524 56 0 0.0 0.0 0.00 0.00 0.00 46 1024.6
20260501225024 56 0 0.0 0.0 0.00 0.00 0.00 46 1024.6
20260501224503 56 0 0.0 0.0 0.00 0.00 0.00 45 1024.4
20260501224003 56 0 0.0 0.0 0.00 0.00 0.00 45 1024.6
20260501223503 56 0 0.0 0.0 0.00 0.00 0.00 45 1024.6
20260501223003 56 0 0.0 0.0 0.00 0.00 0.00 45 1024.5
20260501222503 57 0 0.0 0.0 0.00 0.00 0.00 45 1024.6
20260501222024 57 0 0.0 0.0 0.00 0.00 0.00 45 1024.5
20260501221503 57 0 0.0 0.0 0.00 0.00 0.00 45 1024.4
20260501221003 57 0 0.0 0.0 0.00 0.00 0.00 45 1024.4
20260501220524 57 0 0.0 0.0 0.00 0.00 0.00 45 1024.5
20260501220003 57 0 0.0 0.0 0.00 0.00 0.00 45 1024.5
20260501215524 57 0 0.0 0.0 0.00 0.00 0.00 44 1024.4
20260501215003 57 0 0.0 0.0 0.00 0.00 0.00 44 1024.4
20260501214503 57 0 0.0 0.0 0.00 0.00 0.00 44 1024.3
20260501214024 57 0 0.0 0.0 0.00 0.00 0.00 44 1024.3
20260501213503 57 0 0.0 0.0 0.00 0.00 0.00 44 1024.5
20260501213003 57 0 0.0 0.0 0.00 0.00 0.00 44 1024.4
20260501212503 57 0 0.0 0.0 0.00 0.00 0.00 44 1024.5
20260501212003 57 0 0.0 0.0 0.00 0.00 0.00 44 1024.5
20260501211524 57 0 0.0 0.0 0.00 0.00 0.00 44 1024.4
20260501211003 57 0 0.0 0.0 0.00 0.00 0.00 44 1024.2
20260501210524 57 0 0.0 0.0 0.00 0.00 0.00 44 1024.3
20260501210024 57 0 0.0 0.0 0.00 0.00 0.00 45 1024.3
20260501205524 57 0 0.0 0.0 0.00 0.00 0.00 45 1024.4
20260501205003 57 0 0.0 0.0 0.00 0.00 0.00 45 1024.3
20260501204503 57 0 0.0 0.0 0.00 0.00 0.00 45 1024.4
20260501204003 57 0 0.0 0.0 0.00 0.00 0.00 45 1024.3
20260501203503 57 0 0.0 0.0 0.00 0.00 0.00 45 1024.3
20260501203003 57 0 0.0 0.0 0.00 0.00 0.00 44 1024.3
20260501202503 57 0 0.0 0.0 0.00 0.00 0.00 44 1024.4
20260501202003 57 0 0.0 0.0 0.00 0.00 0.00 44 1024.3
20260501201503 58 0 0.0 0.0 0.00 0.00 0.00 44 1024.2
20260501201003 58 0 0.0 0.0 0.00 0.00 0.00 44 1024.1
20260501200503 58 0 0.0 0.0 0.00 0.00 0.00 43 1024.2
20260501200003 58 0 0.0 0.0 0.00 0.00 0.00 43 1024.1
20260501195503 58 0 0.0 0.0 0.00 0.00 0.00 43 1024.0
20260501195003 58 0 0.0 0.0 0.00 0.00 0.00 43 1023.7
20260501194503 59 0 0.0 0.0 0.00 0.00 0.00 43 1023.7
20260501194003 59 0 0.0 0.0 0.00 0.00 0.00 43 1023.9
20260501193503 59 0 0.0 0.0 0.00 0.00 0.00 43 1023.9
20260501193003 59 0 0.0 0.0 0.00 0.00 0.00 43 1023.7
20260501192524 59 0 0.0 0.0 0.00 0.00 0.00 43 1023.6
20260501192003 60 0 0.0 0.0 0.00 0.00 0.00 43 1023.9
20260501191503 60 0 0.0 0.0 0.00 0.00 0.00 43 1023.6
20260501191003 60 0 0.0 0.0 0.00 0.00 0.00 43 1023.6
20260501190503 60 0 0.0 0.0 0.00 0.00 0.00 42 1023.5
20260501190003 60 0 0.0 0.0 0.00 0.00 0.00 42 1023.5
20260501185503 60 0 0.0 0.0 0.00 0.00 0.00 42 1023.4
20260501185003 61 0 0.0 0.0 0.00 0.00 0.00 42 1023.3
20260501184504 61 0 0.0 0.0 0.00 0.00 0.00 41 1023.4
20260501184003 62 0 0.0 0.0 0.00 0.00 0.00 40 1023.3
20260501183524 62 0 0.0 0.0 0.00 0.00 0.00 40 1023.2
20260501183003 63 0 0.0 0.0 0.00 0.00 0.00 39 1023.2
20260501182503 63 0 0.0 0.0 0.00 0.00 0.00 38 1023.1
20260501182003 64 243 0.9 2.6 0.00 0.00 0.00 34 1023.2
20260501181503 64 229 1.7 3.5 0.00 0.00 0.00 34 1023.1
20260501181003 65 222 0.9 3.5 0.00 0.00 0.00 34 1023.1